Wind_Speed
6 5 6 9 11 13 15 16 17 15 15 14 14 14 14 14 10 4 1 3 6 7 9 9 8 8 7 7 6 6 6 6 6 7 8 8 9 9 9 10 10 11 11 11
7 6 7 9 11 12 15 16 15 14 14 14 14 14 13 12 8 6 2 3 4 5 8 9 8 7 7 6 4 4 5 5 6 7 8 8 8 9 9 9 10 11 11 11
8 7 8 10 11 12 14 15 15 15 15 14 13 12 12 10 6 4 3 3 5 6 7 7 6 5 5 4 3 3 3 4 5 6 7 7 7 8 8 8 9 10 11 12
7 7 9 11 12 12 13 13 12 12 13 14 12 11 10 10 8 4 3 4 6 7 7 6 5 4 2 2 1 2 2 3 4 5 6 6 7 7 8 8 9 10 11 12
7 8 9 11 12 13 11 11 9 9 11 10 9 9 9 9 9 6 5 6 6 7 6 6 4 3 2 1 1 1 2 3 4 5 6 6 7 7 7 8 9 10 11 12
7 9 11 12 12 12 10 8 8 8 8 9 7 8 8 8 9 7 7 6 7 6 6 5 4 3 2 0 1 1 2 3 4 5 5 6 7 8 8 9 10 11 12 13
10 11 12 12 10 10 10 9 9 8 9 9 7 5 6 6 7 7 7 6 5 4 5 4 3 2 1 1 2 2 3 4 4 5 6 7 7 8 9 10 11 12 13 14
14 11 11 10 9 10 9 9 10 10 10 10 8 3 4 5 5 6 6 5 4 3 3 2 1 0 1 2 2 3 3 4 4 5 6 7 8 9 10 11 12 13 14 15
16 12 11 11 10 9 8 9 10 10 10 9 6 4 3 2 3 4 5 3 2 2 2 0 1 2 2 2 3 3 4 4 5 6 7 8 9 10 11 12 13 14 16 17
16 14 12 11 11 10 11 11 11 12 12 10 10 7 6 3 2 2 3 3 1 1 1 1 2 2 3 3 3 3 4 4 5 6 8 9 10 11 12 13 14 16 17 18
16 16 15 14 13 13 14 15 14 14 14 13 11 10 8 7 6 4 4 3 1 1 1 2 2 3 3 4 4 4 5 5 6 7 9 10 11 13 14 15 16 17 18 20
17 17 16 15 15 15 16 16 16 16 15 14 14 12 11 10 9 7 5 4 3 2 2 3 3 3 4 5 5 6 6 7 8 9 11 12 13 14 15 16 17 19 20 22
17 17 17 16 15 16 17 16 16 17 16 15 15 14 13 12 11 9 8 6 5 4 3 3 4 5 5 6 7 8 8 9 11 12 13 14 15 16 17 18 19 21 23 25
19 19 19 18 16 17 16 16 17 16 15 16 15 14 15 14 13 12 10 8 7 6 5 5 6 7 7 7 8 9 10 11 13 14 15 15 16 17 19 20 22 23 25 27
19 20 20 19 18 18 17 16 17 17 17 17 16 16 16 15 14 13 12 10 8 8 7 7 8 8 9 10 11 12 12 13 14 16 17 17 19 20 21 22 24 25 27 28
21 21 20 19 19 20 19 18 18 19 19 20 20 19 17 15 14 14 14 12 11 10 10 10 10 11 11 12 13 14 15 16 17 18 19 20 21 22 23 25 26 28 30 31
21 22 22 20 19 21 20 18 20 21 21 22 23 21 20 18 16 15 15 15 14 13 12 12 13 13 14 15 16 16 17 18 19 20 21 22 23 24 25 27 28 30 31 32
21 21 21 19 18 20 16 19 20 21 22 24 24 22 21 19 18 17 16 16 15 15 14 14 15 16 17 18 18 19 20 21 22 23 23 24 25 26 27 29 30 32 33 34
21 20 19 19 19 18 18 19 21 22 23 25 26 25 23 21 21 21 19 17 16 17 17 17 17 17 18 19 20 21 22 23 24 25 26 26 28 29 30 32 33 34 35 37
21 21 20 20 21 20 20 21 20 23 24 24 25 26 25 24 24 24 22 20 18 17 17 18 19 20 21 22 22 23 24 25 27 28 29 30 31 32 33 34 35 36 38 39
21 22 22 22 22 21 20 21 21 23 24 24 24 25 24 25 25 25 23 21 19 19 19 20 21 22 22 24 25 26 27 28 29 30 31 33 34 35 36 36 37 38 39 41
22 23 23 23 24 22 22 21 21 22 23 23 24 25 26 25 24 25 24 22 21 22 22 23 24 24 25 26 28 29 30 31 32 33 35 36 36 37 38 39 40 40 41 42
22 23 24 23 22 20 19 20 21 22 20 20 21 23 24 25 24 22 22 23 23 24 26 26 28 29 29 30 31 32 33 34 35 36 38 39 39 40 40 42 42 43 43 43
24 25 24 24 23 23 20 20 20 20 21 21 20 20 22 21 20 20 22 25 27 27 29 30 32 32 32 33 34 35 36 37 38 39 40 41 41 42 43 44 45 45 45 46
27 27 27 27 25 24 22 22 21 20 21 21 21 21 21 22 22 23 24 25 27 29 31 32 33 34 35 35 36 37 38 39 40 41 42 43 44 45 45 46 47 47 47 48
27 27 27 26 27 26 25 24 22 21 22 22 22 22 22 22 23 25 26 27 29 31 32 34 35 36 37 38 39 40 41 42 43 44 45 46 46 47 48 49 49 49 49 49
Wind_Direction
278 293 340 357 354 349 341 340 340 343 348 350 353 354 357 357 5 23 322 225 215 202 197 199 204 211 228 245 265 279 283 290 298 306 312 314 319 319 315 314 314 315 318 317
280 302 332 347 343 332 327 334 338 339 344 347 351 354 1 7 21 44 67 158 174 190 185 191 201 210 222 238 259 273 282 292 299 307 314 317 319 317 317 319 320 322 323 322
287 303 316 323 322 321 325 329 339 343 343 349 351 0 6 9 11 15 40 129 149 161 163 162 173 184 205 223 255 274 289 301 309 318 324 323 322 322 324 325 326 327 326 325
296 306 308 308 310 311 314 322 334 348 348 346 353 4 15 21 25 37 68 105 123 135 136 140 147 163 187 228 256 282 302 312 321 330 330 327 327 328 329 330 331 332 332 330
300 301 306 307 308 307 311 321 332 348 349 349 1 15 23 30 36 57 86 110 115 120 122 125 134 146 156 171 247 296 308 320 325 329 332 333 335 337 338 337 336 335 334 332
298 304 309 314 302 302 307 311 323 334 341 343 355 12 27 42 49 61 88 105 116 120 122 123 129 136 135 150 296 302 317 322 324 328 333 339 343 344 344 343 341 338 335 333
282 300 313 315 303 298 298 298 303 313 330 335 353 19 40 54 62 69 80 92 103 111 132 134 134 127 76 335 307 315 320 322 324 328 336 342 344 345 345 344 343 341 338 336
280 298 307 307 304 305 290 286 292 303 322 326 339 13 25 38 61 63 71 86 97 104 134 137 138 32 320 296 296 307 313 315 320 327 333 337 340 342 344 343 342 340 339 337
272 285 290 293 294 296 288 279 284 290 300 311 324 333 339 17 40 56 53 61 81 95 119 109 304 296 291 284 288 297 302 308 316 325 330 332 335 337 338 337 338 338 337 336
269 275 280 284 282 285 284 282 277 279 281 283 291 296 304 301 338 21 30 30 23 73 72 302 288 282 284 286 287 289 296 309 319 324 325 328 330 331 332 333 335 335 335 333
263 270 277 281 282 282 280 281 276 276 276 277 281 287 293 295 310 323 337 356 319 237 246 282 277 272 279 284 286 291 303 314 319 321 320 322 325 326 326 327 329 330 330 330
257 262 271 280 278 278 278 276 272 274 271 272 274 280 284 289 297 306 319 325 316 275 259 262 266 272 280 289 295 302 309 313 315 315 315 317 318 319 320 321 322 322 323 324
263 263 270 276 277 276 277 270 269 268 263 268 275 281 279 284 293 299 306 308 303 291 284 284 289 292 294 296 299 301 305 307 308 308 308 310 312 313 315 316 317 317 317 318
270 268 272 278 278 275 270 264 263 261 263 270 274 278 279 284 288 293 297 295 299 301 300 301 300 298 296 295 296 297 298 298 299 299 300 302 306 309 310 311 314 315 314 315
269 271 272 278 279 274 267 259 257 259 263 269 271 274 278 281 281 283 288 290 296 303 304 304 300 296 293 292 291 291 291 292 293 294 295 297 301 305 306 308 310 312 313 314
276 275 272 275 272 268 264 260 258 257 259 262 265 269 274 276 279 281 287 293 297 300 301 299 295 291 288 287 285 285 286 287 288 290 293 296 299 302 304 306 308 310 312 313
275 275 273 273 266 261 261 259 255 255 258 259 262 269 271 273 276 281 287 293 295 293 292 291 288 285 283 281 281 281 282 284 287 290 292 295 298 300 302 304 306 309 311 312
273 275 274 270 263 259 257 252 252 256 258 259 263 269 270 271 272 273 278 283 288 288 287 283 280 279 278 278 278 279 281 284 286 289 291 294 297 299 301 303 304 306 308 310
275 275 271 267 266 261 255 255 252 255 258 261 265 267 265 263 266 269 270 272 278 284 282 280 278 277 277 277 277 279 281 283 286 288 290 292 295 297 299 301 303 304 306 308
275 275 274 270 270 266 259 258 256 260 263 268 269 266 263 260 263 270 267 265 268 275 279 280 280 281 280 280 280 281 282 285 287 288 289 290 293 295 298 299 301 303 305 306
275 275 276 273 271 271 266 264 261 263 268 270 271 268 266 258 260 267 265 261 267 275 279 282 283 283 283 283 283 283 284 285 287 289 290 291 292 294 296 298 300 303 304 305
278 276 276 276 274 274 270 271 275 275 277 275 275 273 268 265 265 266 267 266 268 275 281 283 283 284 285 285 285 285 285 285 286 288 290 291 292 294 296 298 300 301 303 304
275 277 278 280 280 278 276 278 280 281 282 284 285 279 271 271 270 269 272 275 276 282 286 286 285 286 287 286 286 286 286 287 288 289 290 291 293 295 297 298 299 300 302 303
275 277 280 282 285 286 283 283 286 287 290 291 290 285 282 284 277 276 277 277 279 282 283 285 286 287 287 286 287 287 287 287 288 290 291 291 293 294 296 297 298 299 300 301
274 277 281 282 285 288 292 292 289 286 288 290 289 287 283 281 282 282 281 280 281 283 284 285 285 286 286 286 286 287 288 288 289 291 291 291 292 294 295 296 297 298 298 299
274 277 280 281 285 289 292 292 291 289 289 288 289 289 288 286 285 286 285 284 283 283 283 284 284 285 285 285 286 287 287 288 289 290 290 290 292 293 293 294 295 296 296 297
Height
5894 5894 5891 5889 5887 5885 5884 5882 5881 5879 5876 5874 5870 5868 5864 5860 5856 5854 5855 5856 5857 5859 5862 5864 5867 5869 5871 5873 5873 5873 5873 5873 5873 5873 5872 5871 5870 5869 5868 5866 5864 5863 5862 5860
5893 5891 5889 5887 5885 5884 5883 5881 5880 5878 5876 5873 5870 5867 5864 5860 5858 5857 5856 5856 5858 5859 5861 5864 5865 5868 5870 5871 5871 5872 5872 5872 5871 5871 5870 5869 5868 5867 5865 5863 5862 5860 5859 5857
5889 5889 5886 5885 5884 5883 5882 5880 5879 5877 5875 5872 5870 5867 5864 5862 5860 5858 5857 5857 5858 5859 5861 5862 5864 5866 5868 5869 5870 5870 5870 5870 5869 5869 5868 5867 5866 5864 5863 5861 5860 5858 5856 5855
5886 5886 5885 5884 5883 5881 5880 5879 5878 5876 5873 5871 5870 5867 5865 5862 5860 5859 5858 5857 5858 5859 5861 5862 5865 5866 5867 5868 5868 5868 5868 5868 5868 5867 5866 5865 5864 5862 5861 5859 5858 5856 5854 5852
5885 5884 5884 5883 5881 5880 5878 5877 5876 5875 5873 5871 5869 5867 5865 5862 5860 5858 5857 5857 5858 5860 5861 5862 5864 5865 5866 5866 5866 5866 5866 5866 5866 5865 5864 5863 5862 5860 5859 5857 5856 5854 5852 5850
5883 5882 5882 5881 5879 5878 5876 5875 5874 5873 5872 5871 5869 5867 5865 5862 5860 5858 5858 5858 5859 5860 5861 5862 5863 5864 5865 5865 5865 5865 5865 5864 5864 5863 5862 5861 5860 5858 5857 5855 5853 5851 5849 5847
5880 5880 5879 5878 5876 5876 5874 5873 5873 5871 5870 5869 5868 5866 5865 5863 5861 5860 5859 5859 5859 5860 5860 5862 5863 5863 5863 5864 5864 5863 5863 5863 5862 5861 5860 5859 5858 5856 5854 5852 5851 5849 5847 5845
5876 5877 5877 5875 5874 5872 5871 5871 5871 5869 5868 5867 5866 5865 5865 5863 5861 5860 5860 5860 5860 5860 5860 5861 5862 5862 5862 5862 5862 5862 5861 5861 5860 5859 5858 5857 5855 5854 5852 5850 5848 5846 5844 5842
5872 5873 5873 5872 5871 5870 5869 5869 5868 5867 5866 5865 5865 5865 5864 5862 5861 5860 5860 5859 5859 5859 5859 5860 5860 5861 5861 5861 5860 5860 5860 5859 5858 5857 5856 5854 5853 5851 5849 5848 5846 5843 5841 5839
5869 5869 5869 5868 5868 5868 5868 5867 5866 5865 5864 5863 5862 5862 5862 5861 5860 5859 5859 5859 5859 5858 5858 5858 5859 5859 5859 5859 5858 5858 5858 5857 5856 5854 5853 5852 5850 5848 5846 5845 5842 5840 5837 5835
5863 5865 5866 5865 5865 5865 5865 5865 5863 5862 5861 5860 5859 5861 5860 5859 5858 5858 5858 5857 5857 5857 5857 5857 5857 5857 5857 5856 5856 5856 5855 5854 5853 5852 5850 5849 5847 5845 5843 5841 5839 5836 5834 5831
5860 5861 5861 5861 5861 5861 5860 5860 5859 5859 5858 5857 5856 5859 5857 5856 5855 5855 5855 5855 5854 5855 5855 5855 5855 5854 5854 5853 5853 5852 5851 5850 5849 5848 5847 5846 5844 5842 5840 5838 5835 5833 5830 5827
5856 5856 5857 5858 5859 5858 5856 5855 5855 5855 5854 5854 5853 5855 5853 5853 5852 5852 5852 5852 5851 5852 5851 5851 5851 5850 5850 5850 5849 5848 5848 5847 5846 5845 5843 5842 5840 5838 5836 5833 5831 5828 5825 5822
5851 5852 5853 5854 5853 5852 5851 5851 5851 5850 5850 5849 5849 5849 5849 5848 5848 5848 5849 5848 5848 5848 5847 5847 5847 5846 5846 5846 5845 5845 5844 5843 5842 5841 5840 5838 5836 5834 5831 5829 5826 5823 5819 5816
5846 5847 5848 5848 5848 5847 5847 5847 5846 5845 5845 5844 5845 5844 5844 5844 5844 5845 5845 5844 5844 5843 5843 5843 5842 5842 5842 5841 5841 5841 5840 5839 5838 5837 5835 5833 5831 5828 5826 5823 5820 5817 5813 5809
5841 5841 5842 5842 5842 5841 5841 5842 5841 5840 5839 5839 5839 5839 5840 5839 5840 5840 5840 5839 5839 5839 5838 5838 5838 5837 5837 5837 5837 5836 5835 5834 5833 5831 5829 5827 5825 5822 5820 5817 5814 5810 5806 5802
5835 5835 5836 5836 5835 5835 5836 5837 5835 5834 5833 5833 5833 5835 5835 5835 5835 5835 5835 5834 5834 5834 5834 5834 5833 5833 5832 5832 5831 5831 5830 5828 5827 5825 5823 5821 5818 5816 5813 5810 5806 5803 5799 5795
5829 5829 5829 5829 5830 5830 5833 5831 5830 5829 5828 5828 5828 5829 5829 5830 5831 5830 5830 5830 5830 5830 5830 5829 5828 5828 5827 5826 5826 5825 5823 5822 5820 5818 5816 5814 5811 5808 5805 5802 5799 5795 5791 5787
5824 5823 5823 5824 5823 5824 5826 5825 5824 5823 5823 5823 5823 5823 5824 5824 5825 5825 5825 5825 5825 5825 5825 5824 5824 5823 5822 5821 5819 5818 5817 5815 5813 5810 5808 5806 5803 5800 5797 5794 5790 5786 5782 5778
5817 5817 5817 5817 5817 5818 5821 5820 5819 5819 5818 5818 5817 5817 5817 5817 5818 5819 5819 5819 5819 5819 5819 5818 5818 5817 5815 5814 5813 5811 5809 5807 5805 5803 5800 5797 5794 5791 5788 5785 5781 5777 5773 5768
5810 5810 5810 5810 5810 5812 5813 5813 5813 5814 5814 5812 5811 5810 5810 5810 5812 5812 5812 5812 5812 5812 5812 5811 5811 5809 5808 5806 5805 5803 5801 5799 5797 5794 5791 5789 5785 5782 5779 5775 5771 5767 5763 5758
5804 5804 5804 5803 5804 5807 5806 5806 5807 5807 5805 5805 5804 5804 5803 5803 5802 5803 5804 5804 5804 5804 5803 5803 5802 5801 5800 5798 5796 5795 5793 5790 5788 5785 5782 5779 5775 5772 5768 5765 5761 5756 5752 5747
5798 5798 5797 5798 5799 5798 5797 5798 5799 5798 5798 5798 5798 5797 5796 5795 5795 5795 5796 5796 5796 5796 5795 5794 5793 5792 5791 5789 5787 5785 5783 5780 5777 5774 5771 5768 5764 5760 5757 5753 5749 5745 5740 5736
5791 5791 5791 5791 5791 5790 5790 5791 5791 5791 5791 5791 5791 5790 5790 5789 5788 5788 5788 5788 5787 5787 5786 5785 5784 5782 5781 5779 5777 5774 5772 5769 5766 5763 5760 5756 5753 5749 5745 5741 5737 5733 5728 5723
5785 5784 5784 5784 5784 5784 5784 5784 5785 5784 5784 5784 5783 5783 5783 5782 5781 5781 5780 5779 5779 5778 5777 5775 5774 5772 5770 5768 5766 5764 5761 5758 5754 5751 5747 5744 5740 5736 5732 5728 5724 5720 5715 5710
5778 5778 5778 5778 5778 5778 5778 5778 5778 5777 5777 5776 5776 5775 5775 5774 5774 5773 5772 5771 5770 5769 5768 5766 5764 5761 5759 5757 5754 5752 5749 5745 5742 5738 5735 5730 5727 5723 5719 5715 5711 5706 5702 5697